Terminal Aerodrome Forecast
Issued by NWS Raleigh/Durham, NC

Home | Current Version | Previous Version | Text Only | Print | Product List | Glossary On
Versions: 1 2 3 4 5 6 7 8 9 10 11 12 13 14 15 16 17 18 19 20 21 22 23 24 25 26 27 28 29 30 31 32 33 34 35 36 37 38 39 40 41 42 43 44 45 46 47 48 49 50
000
FTUS42 KRAH 162339
TAFGSO
TAF
KGSO 162339Z 1700/1724 03003KT P6SM SCT010 SCT040 BKN070
     FM170900 03005KT 5SM BR OVC006
     FM171300 04008KT P6SM BKN015
     FM172000 04005KT P6SM SCT015 SCT060=

USA.gov is the U.S. government's official web portal to all federal, state and local government web resources and services.